Total_Precipitation_Accumulation
0.04 0.04 0.04 0.04 0.04 0.05 0.05 0.05 0.08 0.10 0.12 0.14 0.15 0.15 0.12 0.10 0.08 0.07 0.06 0.05 0.04 0.04 0.03 0.03 0.04 0.03 0.03 0.02 0.01 0.01 0.00 0.00 0.00 0.00 0.00 0.00 0.00 0.00 0.00 0.00 0.00 0.00 0.00
0.04 0.05 0.05 0.05 0.05 0.05 0.05 0.06 0.08 0.10 0.10 0.11 0.11 0.10 0.08 0.06 0.06 0.07 0.07 0.06 0.06 0.06 0.06 0.06 0.06 0.05 0.04 0.03 0.02 0.01 0.00 0.00 0.00 0.01 0.00 0.00 0.00 0.00 0.00 0.00 0.00 0.01 0.01
0.05 0.06 0.06 0.06 0.06 0.06 0.07 0.07 0.07 0.07 0.08 0.07 0.06 0.05 0.05 0.05 0.05 0.06 0.06 0.07 0.07 0.07 0.07 0.07 0.06 0.06 0.05 0.03 0.02 0.01 0.01 0.01 0.01 0.01 0.00 0.00 0.00 0.00 0.01 0.00 0.00 0.00 0.00
0.07 0.09 0.09 0.10 0.10 0.10 0.10 0.09 0.08 0.07 0.05 0.04 0.03 0.03 0.04 0.04 0.05 0.06 0.06 0.07 0.08 0.08 0.08 0.08 0.07 0.06 0.05 0.04 0.02 0.02 0.02 0.01 0.01 0.02 0.04 0.04 0.04 0.01 0.01 0.00 0.00 0.00 0.00
0.13 0.13 0.13 0.13 0.13 0.12 0.11 0.09 0.07 0.05 0.04 0.03 0.03 0.04 0.04 0.05 0.06 0.07 0.08 0.10 0.11 0.11 0.11 0.10 0.08 0.06 0.04 0.03 0.03 0.02 0.01 0.02 0.06 0.12 0.14 0.09 0.03 0.01 0.01 0.00 0.01 0.01 0.00
0.15 0.14 0.13 0.13 0.13 0.11 0.10 0.08 0.07 0.06 0.05 0.06 0.07 0.08 0.09 0.10 0.14 0.13 0.11 0.11 0.11 0.11 0.10 0.08 0.06 0.04 0.02 0.02 0.02 0.03 0.06 0.12 0.20 0.23 0.15 0.05 0.01 0.01 0.01 0.03 0.05 0.07 0.05
0.17 0.15 0.13 0.14 0.14 0.12 0.11 0.13 0.15 0.15 0.15 0.16 0.17 0.18 0.20 0.21 0.23 0.19 0.16 0.14 0.12 0.11 0.08 0.06 0.03 0.02 0.01 0.01 0.01 0.04 0.08 0.13 0.15 0.11 0.04 0.01 0.01 0.02 0.07 0.11 0.10 0.11 0.06
0.28 0.25 0.20 0.21 0.24 0.26 0.29 0.31 0.32 0.34 0.35 0.35 0.33 0.31 0.28 0.27 0.25 0.19 0.15 0.11 0.09 0.06 0.04 0.02 0.01 0.00 0.01 0.02 0.06 0.11 0.09 0.06 0.02 0.01 0.01 0.02 0.03 0.03 0.06 0.13 0.12 0.09 0.03
0.36 0.38 0.37 0.38 0.42 0.44 0.48 0.49 0.48 0.48 0.44 0.40 0.36 0.31 0.26 0.21 0.16 0.11 0.07 0.05 0.03 0.01 0.01 0.00 0.01 0.01 0.02 0.07 0.13 0.15 0.06 0.01 0.00 0.01 0.03 0.03 0.02 0.02 0.03 0.10 0.15 0.15 0.08
0.47 0.52 0.52 0.52 0.53 0.53 0.51 0.49 0.45 0.41 0.36 0.29 0.23 0.19 0.14 0.10 0.06 0.03 0.02 0.01 0.00 0.00 0.00 0.00 0.01 0.02 0.06 0.12 0.13 0.08 0.02 0.00 0.02 0.01 0.00 0.00 0.00 0.00 0.01 0.07 0.20 0.35 0.25
0.58 0.61 0.62 0.57 0.53 0.47 0.38 0.30 0.24 0.20 0.15 0.12 0.09 0.06 0.04 0.02 0.01 0.00 0.00 0.00 0.00 0.01 0.00 0.00 0.01 0.04 0.10 0.11 0.06 0.01 0.02 0.05 0.03 0.00 0.00 0.00 0.00 0.00 0.00 0.01 0.08 0.35 0.50
0.45 0.41 0.37 0.31 0.26 0.21 0.16 0.12 0.09 0.07 0.05 0.04 0.03 0.02 0.01 0.00 0.00 0.00 0.00 0.01 0.02 0.02 0.01 0.01 0.02 0.07 0.07 0.03 0.01 0.01 0.03 0.03 0.00 0.00 0.00 0.00 0.01 0.01 0.00 0.01 0.02 0.06 0.20
0.14 0.11 0.10 0.09 0.07 0.07 0.05 0.03 0.02 0.01 0.01 0.00 0.00 0.00 0.00 0.00 0.00 0.00 0.00 0.01 0.03 0.03 0.02 0.04 0.05 0.04 0.01 0.00 0.00 0.01 0.01 0.00 0.01 0.03 0.02 0.01 0.01 0.01 0.01 0.02 0.01 0.01 0.02
0.01 0.01 0.01 0.01 0.01 0.01 0.00 0.00 0.00 0.00 0.00 0.00 0.00 0.00 0.00 0.00 0.00 0.00 0.00 0.01 0.02 0.02 0.03 0.03 0.02 0.00 0.00 0.00 0.00 0.00 0.00 0.00 0.04 0.06 0.04 0.02 0.01 0.01 0.02 0.03 0.05 0.05 0.06
0.00 0.00 0.00 0.00 0.00 0.00 0.00 0.00 0.00 0.00 0.00 0.00 0.00 0.00 0.00 0.00 0.00 0.01 0.02 0.02 0.03 0.03 0.03 0.01 0.00 0.00 0.00 0.00 0.00 0.00 0.00 0.01 0.02 0.03 0.05 0.05 0.03 0.02 0.02 0.02 0.07 0.10 0.12
0.00 0.00 0.00 0.00 0.00 0.00 0.00 0.00 0.00 0.00 0.00 0.00 0.00 0.00 0.00 0.00 0.01 0.01 0.02 0.03 0.03 0.03 0.01 0.00 0.00 0.00 0.00 0.00 0.00 0.01 0.01 0.01 0.03 0.05 0.06 0.07 0.09 0.07 0.05 0.03 0.05 0.11 0.13
0.00 0.00 0.00 0.00 0.00 0.00 0.00 0.00 0.00 0.00 0.00 0.00 0.00 0.00 0.00 0.00 0.00 0.01 0.02 0.02 0.01 0.00 0.00 0.00 0.00 0.00 0.00 0.01 0.02 0.03 0.03 0.01 0.03 0.06 0.09 0.11 0.13 0.10 0.07 0.07 0.06 0.09 0.08
0.00 0.00 0.00 0.00 0.00 0.00 0.00 0.00 0.00 0.00 0.00 0.00 0.00 0.00 0.00 0.00 0.00 0.01 0.01 0.00 0.00 0.00 0.00 0.00 0.00 0.01 0.01 0.03 0.03 0.04 0.04 0.03 0.04 0.06 0.08 0.11 0.15 0.15 0.11 0.10 0.10 0.13 0.15
0.00 0.00 0.00 0.00 0.00 0.00 0.00 0.00 0.00 0.00 0.00 0.00 0.00 0.00 0.00 0.00 0.00 0.00 0.00 0.00 0.00 0.00 0.00 0.00 0.00 0.01 0.03 0.04 0.05 0.06 0.06 0.07 0.07 0.10 0.11 0.14 0.17 0.20 0.14 0.10 0.11 0.10 0.12
0.00 0.00 0.00 0.00 0.00 0.00 0.00 0.00 0.00 0.00 0.00 0.00 0.00 0.00 0.00 0.00 0.00 0.00 0.00 0.00 0.00 0.00 0.00 0.00 0.01 0.01 0.04 0.06 0.06 0.06 0.07 0.06 0.08 0.10 0.11 0.14 0.16 0.20 0.20 0.15 0.14 0.15 0.14
0.00 0.00 0.00 0.00 0.00 0.00 0.00 0.00 0.00 0.00 0.00 0.00 0.00 0.00 0.00 0.00 0.00 0.00 0.00 0.00 0.00 0.00 0.01 0.01 0.02 0.03 0.06 0.07 0.07 0.06 0.06 0.06 0.09 0.14 0.15 0.14 0.16 0.16 0.15 0.15 0.16 0.19 0.19
0.00 0.00 0.00 0.00 0.00 0.00 0.00 0.00 0.00 0.00 0.00 0.00 0.00 0.00 0.00 0.00 0.00 0.00 0.00 0.00 0.00 0.00 0.01 0.03 0.04 0.05 0.11 0.16 0.18 0.15 0.09 0.06 0.08 0.12 0.13 0.11 0.12 0.15 0.18 0.20 0.21 0.20 0.17
0.00 0.00 0.00 0.00 0.00 0.00 0.00 0.00 0.00 0.00 0.00 0.00 0.00 0.00 0.00 0.00 0.00 0.00 0.00 0.00 0.00 0.00 0.01 0.03 0.06 0.06 0.08 0.15 0.21 0.30 0.32 0.23 0.16 0.18 0.28 0.31 0.28 0.29 0.28 0.25 0.20 0.17 0.11
0.00 0.00 0.00 0.00 0.00 0.00 0.00 0.00 0.00 0.00 0.00 0.00 0.00 0.00 0.00 0.00 0.00 0.00 0.00 0.00 0.00 0.00 0.01 0.04 0.07 0.08 0.09 0.14 0.18 0.23 0.30 0.35 0.48 0.60 0.67 0.67 0.48 0.32 0.24 0.18 0.15 0.14 0.10
0.00 0.00 0.00 0.00 0.00 0.00 0.00 0.00 0.00 0.00 0.00 0.00 0.00 0.00 0.00 0.00 0.00 0.01 0.00 0.00 0.00 0.00 0.01 0.03 0.08 0.12 0.12 0.13 0.17 0.20 0.19 0.30 0.48 0.55 0.44 0.33 0.25 0.19 0.17 0.15 0.12 0.11 0.08
0.00 0.00 0.00 0.00 0.00 0.00 0.00 0.00 0.00 0.00 0.00 0.00 0.00 0.01 0.01 0.01 0.01 0.01 0.01 0.01 0.01 0.01 0.01 0.02 0.06 0.11 0.14 0.13 0.10 0.12 0.21 0.27 0.26 0.18 0.14 0.15 0.14 0.12 0.12 0.11 0.09 0.08 0.06